Arvada, CO (80002)

2:49 AM MDT on August 28, 2015 (GMT -0600)
Arvada Center | | Change Station
CLOSE
Current Station
Personal Weather Station
Location: Arvada, CO
Elevation: 5492 ft
Nearby Weather Stations

Elev 5492 ft 39.82 °N, 105.08 °W | Updated 13 minutes ago

Partly Cloudy
Partly Cloudy
65.3 °F
Feels Like 65.3 °F
N
2.2
Wind Variable Wind from West

Today
High -- | Low -- °F
--% Chance of Precip.
Yesterday
High -- | Low -- °F
Precip. -- in
6:24 AM 7:38 PM
Waxing Gibbous, 97% visible
Pressure 30.22 in
Visibility 10.0 miles
Clouds Scattered Clouds 5500 ft
Dew Point 54 °F
Humidity 67%
Rainfall 0.00 in
Snow Depth Not available.
UV 0 out of 12
Pollen 9.80 out of 12
Air Quality Not available.
Flu Activity Not available.
METAR KBJC 280836Z AUTO 36011KT 10SM SCT055 20/11 A3022 RMK AO2
Pressure 30.22 in
Visibility 10.0 miles
Clouds Scattered Clouds 5500 ft
Dew Point 54 °F
Humidity 67%
Rainfall 0.00 in
Snow Depth Not available.
UV 0 out of 12
Pollen 9.80 out of 12
Air Quality Not available.
Flu Activity Not available.
METAR KBJC 280836Z AUTO 36011KT 10SM SCT055 20/11 A3022 RMK AO2

10-Day Weather Forecast

×

Almanac

Astronomy

Aug. 28, 2015 Rise Set
Actual Time
Civil Twilight
Nautical Twilight
Astronomical Twilight
Moon
Length of Visible Light
Length of Day
Tomorrow will be .
, % of the Moon is Illuminated

Today's Extremes

State Highs State Lows

Community

WunderPhotos

Upload Photos

1,850,348 photos uploaded!

WunderBlogs® & News

Nearby

Air Quality

  Air Quality AQ Index Pollutant
Not available.

Snow Depth

Station Depth Elevation

Earthquake Activity

City Distance Mag. Time & Date
Minimum magnitude displayed is 2.5.

Coastal Water Temperatures

Place Temperature

Stations

Nearby Weather Stations

Station Location Temp. Windchill Dew Point Humidity Wind Precip. Elev Updated Type